Regional Weather Roundup
Issued by NWS Cleveland, OH

Home | Current Version | Previous Version | Text Only | Print | Product List | Glossary Off
Versions: 1 2 3 4 5 6 7 8 9 10 11 12 13 14 15 16 17 18 19 20 21 22 23 24 25 26 27 28 29 30 31 32 33 34 35 36 37 38 39 40 41 42 43 44 45 46 47 48 49 50

879
ASUS41 KCLE 300410
RWRCLE
OHIO REGIONAL WEATHER ROUNDUP
NATIONAL WEATHER SERVICE WILMINGTON, OH
1200 AM EDT MON MAY 30 2016

NOTE: "FAIR" INDICATES FEW OR NO CLOUDS BELOW 12,000 FEET WITH NO
SIGNIFICANT WEATHER AND/OR OBSTRUCTIONS TO VISIBILITY.

OHZ001>008-015>018-024>027-034-035-043-044-300500-
   NORTHWEST OHIO

CITY           SKY/WX    TMP DP  RH WIND       PRES   REMARKS
DEFIANCE       FAIR      69  55  60 CALM      30.01R
FINDLAY        FAIR      73  59  61 N7        30.00R
TOLEDO EXPRESS FAIR      71  55  56 W6        30.00R
TOLEDO EXEC    FAIR      71  56  58 NW8       30.00R
LIMA           FAIR      69  63  81 VRB5      30.01R
$$

OHZ009>014-019>023-028>033-038-089-300500-
   NORTHEAST OHIO

CITY           SKY/WX    TMP DP  RH WIND       PRES   REMARKS
CLE-HOPKINS    MOCLDY    67  61  81 S8        30.01F
CLE-LAKEFRONT  FAIR      67  60  78 SE16      29.98S
CUY CO. ARPT   NOT AVBL
LORAIN-ELYRIA  FAIR      66  59  78 S8        30.00S
ASHTABULA      MOCLDY    66  60  81 S9        30.00F
AKRON-CANTON   LGT RAIN  67  61  81 SE8       30.04F
WOOSTER        FAIR      66  61  84 S3        30.03F
MANSFIELD      CLOUDY    64  63  96 SE8       30.03F
YOUNGSTOWN     MOCLDY    64  61  90 SE7       30.03F
$$

OHZ042-051>053-060>062-070>072-077>081-300500-
  SOUTHWEST OHIO

CITY           SKY/WX    TMP DP  RH WIND       PRES   REMARKS
CINC-COVINGTON FAIR      66  65  96 SW3       30.02S
CINC-LUNKEN    FAIR      66  66 100 CALM      30.02R FOG
HAMILTON       FAIR      71  64  78 NW6       30.01F
DAYTON         MOCLDY    69  64  84 S5        30.03S
WRIGHT-PAT AFB MOCLDY    68  66  92 S1        30.02R
DAYTON GENERAL FAIR      68  62  81 CALM      30.02R
WILMINGTON     FAIR      67  64  90 S7        30.03S
$$

OHZ036-037-039>041-045>050-054>059-063>069-073>076-082>088-300500-
  CENTRAL AND SOUTHEAST OHIO

CITY           SKY/WX    TMP DP  RH WIND       PRES   REMARKS
COLUMBUS       CLOUDY    66  64  93 S8        30.03F
OSU AIRPORT    FAIR      68  62  81 S8        30.02F
BOLTON FIELD   MOCLDY    66  64  91 SE3       30.04S
RICKENBACK AFB CLOUDY    65  64  94 E3        30.03F
NEWARK         FAIR      71  61  70 SW12      30.03F
MARION         FAIR      65  62  90 S6        30.02F
LANCASTER      MOCLDY    66  62  87 N6        30.05S
ZANESVILLE     FAIR      69  63  81 CALM      30.04F
NEW PHILLY     FAIR      67  62  84 CALM      30.05F
$$




USA.gov is the U.S. government's official web portal to all federal, state and local government web resources and services.